Weather History for 33345 - November, 2013

Change the Weather History Date:

Friday, November 8, 2013

  Actual Average Record
Temperature  
Mean Temperature 47 °F -  
Max Temperature 55 °F - - ()
Min Temperature 39 °F - - ()
Degree Days  
Heating Degree Days 18    
Moisture  
Dew Point 47 °F    
Average Humidity 89    
Maximum Humidity 100    
Minimum Humidity 70    
Precipitation  
Precipitation 0.00 in 0.07 in - ()
Sea Level Pressure  
Sea Level Pressure 29.98 in    
Wind  
Wind Speed 6 mph ()    
Max Wind Speed 11 mph    
Max Gust Speed -    
Visibility 6.1 miles    
Events Rain    
T = Trace of Precipitation, MM = Missing Value Source: Averaged Metar Reports

Daily Weather History Graph

Daily Weather History Graph

Search for Another Location

Airport or City:

Trip Planner

Search our weather history database for the weather conditions in past years. The results will help you decide how hot, cold, wet, or windy it might be!

Date:

Astronomy

Nov. 08, 2013 Rise Set
Actual Time 7:00 AM EET 4:22 PM EET
Civil Twilight 6:25 AM EET 4:57 PM EET
Nautical Twilight 5:46 AM EET 5:36 PM EET
Astronomical Twilight 5:08 AM EET 6:14 PM EET
Moon 11:43 AM EET (11/8) 9:19 PM EET (11/8)
Length of Visible Light 10h 32m
Length of Day
9h 21m
Waxing Crescent, 30% of the Moon is Illuminated
Nov 8
Waxing Crescent
Nov 10
First Quarter
Nov 17
Full
Nov 25
Last Quarter
Dec 3
New

Hourly Weather History & Observations

Time (EET) Temp. Windchill Dew Point Humidity Pressure Visibility Wind Dir Wind Speed Gust Speed Precip Events Conditions
12:00 AM 41.0 °F 38.1 °F 39.2 °F 93% 29.92 in - SW 4.5 mph - N/A   Clear
12:30 AM 41.0 °F - 39.2 °F 93% 29.92 in - Variable 2.2 mph - N/A   Clear
1:00 AM 41.0 °F 36.5 °F 39.2 °F 93% 29.92 in 6.2 mi SW 6.7 mph - N/A   Mostly Cloudy
1:30 AM 41.0 °F - 39.2 °F 93% 29.92 in 6.2 mi Variable 2.2 mph - N/A   Mostly Cloudy
2:00 AM 41.0 °F 38.1 °F 37.4 °F 87% 29.92 in 6.2 mi SW 4.5 mph - N/A   Mostly Cloudy
2:30 AM 41.0 °F 38.1 °F 39.2 °F 93% 29.92 in 6.2 mi SW 4.5 mph - N/A   Mostly Cloudy
3:00 AM 42.8 °F 38.7 °F 39.2 °F 87% 29.92 in 6.2 mi SW 6.7 mph - N/A   Mostly Cloudy
3:30 AM 44.6 °F 40.8 °F 39.2 °F 81% 29.92 in 6.2 mi SW 6.7 mph - N/A   Mostly Cloudy
4:00 AM 44.6 °F 40.8 °F 41.0 °F 87% 29.92 in 6.2 mi SW 6.7 mph - N/A   Mostly Cloudy
4:30 AM 44.6 °F 40.8 °F 42.8 °F 93% 29.92 in 5.6 mi SW 6.7 mph - N/A Rain Light Rain
5:00 AM 44 °F - 42 °F 89% 29.94 in 2 mi SW 4.5 mph - - Rain Light Rain
5:00 AM 44.6 °F 40.8 °F 42.8 °F 93% 29.92 in 1.7 mi SW 6.7 mph - N/A Rain Light Rain
5:18 AM 44.6 °F 42.3 °F 44.6 °F 100% 29.92 in - SW 4.5 mph - N/A Rain Light Rain
5:30 AM 44.6 °F 42.3 °F 44.6 °F 100% 29.92 in 1.3 mi WSW 4.5 mph - N/A Rain Light Rain
6:00 AM 44.6 °F 40.8 °F 44.6 °F 100% 29.92 in - WSW 6.7 mph - N/A Rain Light Rain
6:30 AM 44.6 °F 40.8 °F 44.6 °F 100% 29.92 in - WSW 6.7 mph - N/A   Overcast
7:00 AM 46.4 °F 43.0 °F 46.4 °F 100% 29.95 in - WSW 6.7 mph - N/A   Overcast
7:30 AM 46.4 °F 43.0 °F 46.4 °F 100% 29.95 in 3.1 mi WSW 6.7 mph - N/A   Overcast
8:00 AM 47 °F - 46 °F 92% 29.99 in 6 mi West 6.7 mph - -   Partly Cloudy
8:00 AM 48.2 °F - 46.4 °F 93% 29.95 in 4.3 mi WSW 6.7 mph - N/A   Mostly Cloudy
8:30 AM 48.2 °F - 48.2 °F 100% 29.98 in 5.0 mi WSW 6.7 mph - N/A   Mostly Cloudy
9:00 AM 50.0 °F - 48.2 °F 94% 29.98 in 5.0 mi SW 8.9 mph - N/A   Mostly Cloudy
9:30 AM 50.0 °F - 48.2 °F 94% 29.98 in 3.7 mi WSW 8.9 mph - N/A   Light Drizzle
9:57 AM 50.0 °F - 50.0 °F 100% 29.98 in 3.1 mi SW 8.9 mph - N/A Rain Light Rain
10:00 AM 51.8 °F - 50.0 °F 94% 29.98 in 3.7 mi WSW 8.9 mph - N/A Rain Light Rain
10:30 AM 51.8 °F - 50.0 °F 94% 29.98 in 5.6 mi WSW 11.2 mph - N/A   Mostly Cloudy
11:00 AM 52 °F - 49 °F 86% 30.00 in 12 mi WSW 8.9 mph - - Rain Light Rain
11:00 AM 51.8 °F - 50.0 °F 94% 29.98 in 5.6 mi WSW 11.2 mph - N/A   Mostly Cloudy
11:30 AM 53.6 °F - 50.0 °F 88% 29.98 in 6.2 mi WSW 8.9 mph - N/A   Mostly Cloudy
12:00 PM 53.6 °F - 50.0 °F 88% 29.98 in 6.2 mi WSW 11.2 mph - N/A   Mostly Cloudy
12:30 PM 53.6 °F - 50.0 °F 88% 29.98 in 6.2 mi WSW 11.2 mph - N/A   Mostly Cloudy
1:00 PM 55.4 °F - 51.8 °F 88% 29.98 in 6.2 mi WSW 8.9 mph - N/A   Overcast
1:30 PM 55.4 °F - 51.8 °F 88% 30.01 in 6.2 mi WSW 6.7 mph - N/A   Mostly Cloudy
2:00 PM 55 °F - 50 °F 76% 30.01 in 12 mi WSW 6.7 mph - -   Partly Cloudy
2:00 PM 55.4 °F - 51.8 °F 88% 30.01 in 6.2 mi WSW 6.7 mph - N/A Rain Light Rain
2:30 PM 55.4 °F - 51.8 °F 88% 30.01 in 6.2 mi SW 6.7 mph - N/A   Mostly Cloudy
3:00 PM 55.4 °F - 51.8 °F 88% 30.01 in 6.2 mi SSW 4.5 mph - N/A   Mostly Cloudy
3:30 PM 55.4 °F - 51.8 °F 88% 30.01 in 6.2 mi SSW 4.5 mph - N/A   Mostly Cloudy
4:00 PM 55.4 °F - 51.8 °F 88% 30.01 in - SSW 4.5 mph - N/A   Clear
4:30 PM 55.4 °F - 51.8 °F 88% 30.01 in - SSW 6.7 mph - N/A   Clear
5:00 PM 55 °F - 50 °F 77% 30.03 in 12 mi SSW 2.2 mph - -   Overcast
5:00 PM 55.4 °F - 50.0 °F 82% 30.01 in - SW 6.7 mph - N/A   Clear
5:30 PM 55.4 °F - 50.0 °F 82% 30.01 in - SW 6.7 mph - N/A   Clear
6:00 PM 53.6 °F - 50.0 °F 88% 30.01 in - SW 6.7 mph - N/A   Clear
6:30 PM 53.6 °F - 48.2 °F 82% 30.04 in - SW 6.7 mph - N/A   Clear
7:00 PM 53.6 °F - 48.2 °F 82% 30.04 in - SW 8.9 mph - N/A   Clear
7:30 PM 53.6 °F - 48.2 °F 82% 30.04 in - SW 6.7 mph - N/A   Clear
8:00 PM 54 °F - 47 °F 70% 30.04 in 12 mi SW 8.9 mph - -   Mostly Cloudy
8:00 PM 53.6 °F - 48.2 °F 82% 30.04 in - SW 6.7 mph - N/A   Clear
8:30 PM 53.6 °F - 48.2 °F 82% 30.04 in - SW 6.7 mph - N/A   Clear
9:00 PM 53.6 °F - 48.2 °F 82% 30.04 in - SW 4.5 mph - N/A   Clear
9:30 PM 51.8 °F - 48.2 °F 88% 30.04 in - SW 4.5 mph - N/A   Clear
10:00 PM 51.8 °F - 48.2 °F 88% 30.04 in - WSW 4.5 mph - N/A   Clear
10:30 PM 53.6 °F - 50.0 °F 88% 30.04 in - SW 6.7 mph - N/A   Clear
11:00 PM 55 °F - 48 °F 71% 30.06 in 12 mi SW 8.9 mph - -   Mostly Cloudy
11:00 PM 53.6 °F - 50.0 °F 88% 30.04 in - SW 8.9 mph - N/A   Clear
11:30 PM 53.6 °F - 50.0 °F 88% 30.04 in - SW 8.9 mph - N/A   Clear